Weather History for Sidney, NE

Change the Weather History Date:

Tuesday, July 9, 2013

  Actual Average Record
Temperature  
Mean Temperature 79 °F 75 °F  
Max Temperature 98 °F 91 °F 108 °F (1989)
Min Temperature 60 °F 59 °F 41 °F (1959)
Degree Days  
Heating Degree Days 0 0  
Month to date heating degree days 0 0  
Since 1 June heating degree days 37 59  
Since 1 July heating degree days 0 0  
Cooling Degree Days 14 10  
Month to date cooling degree days 78 83  
Year to date cooling degree days 279 242  
Since 1 June cooling degree days 246 220  
Growing Degree Days 29 (Base 50)    
Moisture  
Dew Point 52 °F    
Average Humidity 49    
Maximum Humidity 84    
Minimum Humidity 14    
Precipitation  
Precipitation 0.04 in 0.09 in 0.72 in (1965)
Month to date precipitation 0.26 0.82  
Year to date precipitation 6.29 10.76  
Sea Level Pressure  
Sea Level Pressure 30.00 in    
Wind  
Wind Speed 10 mph (North)    
Max Wind Speed 33 mph    
Max Gust Speed 44 mph    
Visibility 10 miles    
Events Rain , Thunderstorm    
T = Trace of Precipitation, MM = Missing Value Source: NWS Daily Summary

Daily Weather History Graph

Daily Weather History Graph

Search for Another Location

Airport:

Trip Planner

Search our weather history database for the weather conditions in past years. The results will help you decide how hot, cold, wet, or windy it might be!

Date:

Astronomy

Jul. 09, 2013 Rise Set
Actual Time 5:28 AM MDT 8:25 PM MDT
Civil Twilight 4:55 AM MDT 8:58 PM MDT
Nautical Twilight 4:13 AM MDT 9:40 PM MDT
Astronomical Twilight 3:24 AM MDT 10:29 PM MDT
Moon 6:55 AM MDT (7/9) 9:03 PM MDT (7/9)
Length of Visible Light 16h 03m
Length of Day
14h 57m
New Moon, 2% of the Moon is Illuminated
Jul 9
New Moon
Jul 15
First Quarter
Jul 22
Full
Jul 29
Last Quarter
Aug 6
New

Hourly Weather History & Observations

Time (MDT) Temp. Heat Index Dew Point Humidity Pressure Visibility Wind Dir Wind Speed Gust Speed Precip Events Conditions
12:53 AM 63.0 °F - 55.0 °F 75% 29.92 in 10.0 mi West 3.5 mph - N/A   Clear
1:53 AM 63.0 °F - 55.9 °F 78% 29.92 in 10.0 mi WSW 9.2 mph - N/A   Clear
2:53 AM 63.0 °F - 57.0 °F 81% 29.91 in 10.0 mi NW 3.5 mph - N/A   Clear
3:53 AM 62.1 °F - 55.0 °F 78% 29.90 in 10.0 mi NW 10.4 mph - N/A   Clear
4:53 AM 61.0 °F - 55.9 °F 83% 29.92 in 10.0 mi NW 9.2 mph - N/A   Clear
5:53 AM 63.0 °F - 57.0 °F 81% 29.93 in 10.0 mi North 5.8 mph - N/A   Clear
6:53 AM 68.0 °F - 55.0 °F 63% 29.95 in 10.0 mi West 9.2 mph - N/A   Clear
7:53 AM 75.0 °F - 53.1 °F 46% 29.95 in 10.0 mi WNW 10.4 mph - N/A   Clear
8:53 AM 80.1 °F - 52.0 °F 38% 29.97 in 10.0 mi NNW 9.2 mph - N/A   Clear
9:53 AM 86.0 °F 84.0 °F 53.1 °F 32% 29.98 in 10.0 mi North 11.5 mph - N/A   Clear
10:53 AM 86.0 °F 84.7 °F 55.9 °F 36% 30.00 in 10.0 mi North 13.8 mph - N/A   Clear
11:53 AM 89.1 °F 86.9 °F 54.0 °F 30% 30.00 in 10.0 mi North 12.7 mph - N/A   Clear
12:53 PM 93.0 °F - 51.1 °F 24% 29.99 in 10.0 mi North 6.9 mph 18.4 mph N/A   Clear
1:53 PM 95.0 °F - 46.9 °F 19% 29.97 in 10.0 mi NNW 5.8 mph 17.3 mph N/A   Clear
2:53 PM 97.0 °F - 41.0 °F 14% 29.95 in 10.0 mi North 16.1 mph 27.6 mph N/A   Clear
3:53 PM 97.0 °F - 39.9 °F 14% 29.94 in 10.0 mi NNE 15.0 mph 23.0 mph N/A   Clear
4:53 PM 97.0 °F - 41.0 °F 14% 29.93 in 10.0 mi NNW 9.2 mph - N/A   Clear
5:53 PM 93.0 °F - 48.0 °F 21% 29.93 in 10.0 mi NE 13.8 mph - N/A   Clear
6:53 PM 90.0 °F - 43.0 °F 19% 29.94 in 10.0 mi ENE 16.1 mph - N/A   Clear
7:46 PM 86.0 °F - 46.4 °F 25% 30.14 in 10.0 mi NE 12.7 mph - N/A Thunderstorm Mostly Cloudy
7:53 PM 86.0 °F - 46.0 °F 25% 29.97 in 10.0 mi NNE 9.2 mph - N/A Thunderstorm Thunderstorm
8:15 PM 68.0 °F - 57.2 °F 68% 30.19 in 4.0 mi North 21.9 mph 43.7 mph 0.03 in Rain , Thunderstorm Thunderstorms and Rain
8:28 PM 71.6 °F - 57.2 °F 60% 30.21 in 9.0 mi NE 21.9 mph 41.4 mph 0.04 in Rain , Thunderstorm Light Thunderstorms and Rain
8:41 PM 71.6 °F - 59.0 °F 64% 30.22 in 10.0 mi ESE 13.8 mph - 0.04 in   Overcast
8:53 PM 71.1 °F - 59.0 °F 66% 30.07 in 10.0 mi ESE 8.1 mph - 0.04 in   Overcast
9:53 PM 73.9 °F - 57.9 °F 57% 30.00 in 10.0 mi East 12.7 mph - 0.00 in   Mostly Cloudy
10:53 PM 66.9 °F - 57.9 °F 73% 30.04 in 10.0 mi South 8.1 mph - N/A   Clear
11:53 PM 64.9 °F - 57.9 °F 78% 30.07 in 10.0 mi ESE 4.6 mph - N/A   Clear